Шедок

Россия / Краснодарский край     44°12′57″N   40°50′44″E
темп.,
°C
ветер,
м/с
пор.,
м/с
влажн.,
%
обл.,
%
осадки,
мм/ч
давл.,
гПа
погр.,
м
18 мая, вт
вт1800:00+13ю1297100 2.0 101068
03:00+13всв0098100 3.8 101133
06:00+13ююв119761 2.1 101166
09:00+16св22840 4.6 1011497
12:00+18с337754 1.4 1011984
15:00+19св326854 2.2 10111141
18:00+17в34793 0.4 1011597
21:00+12ююв11955 1.2 101114
19 мая, ср
ср1900:00+11ю2293100 0.0 100936
03:00+11ю1190100 0.4 100730
06:00+11ю01937 0.3 100936
09:00+15сз448393 0.7 1011823
12:00+16ююв157526 2.4 1013942
15:00+20з48361 2.6 10122023
18:00+16зсз495326 0.0 1013371
21:00+10ю22684 0.0 101631
20 мая, чт
чт2000:00+8ю22633 0.0 101724
03:00+7ю22649 0.0 101720
06:00+9ю22674 0.0 101630
09:00+17всв23455 0.0 1015519
12:00+21св22391 0.0 10141009
15:00+22св3346100 0.0 10131121
18:00+19всв3670100 0.0 1013298
21:00+14ююв228935 0.0 101323
21 мая, пт
пт2100:00+12ю32650 0.0 101231
03:00+13ю32450 0.0 101128
06:00+14ю32601 0.0 101131
09:00+25вюв13410 0.0 1009278
12:00+30всв343553 0.0 1007813
15:00+30с224825 0.0 1006493
18:00+26ссв11725 0.0 100653
21:00+18ю32690 0.0 100729
22 мая, сб
сб2200:00+17ююз3252100 0.0 100623
03:00+16ю3250100 0.0 100622
06:00+16ююз3476100 0.3 100656
09:00+23сз2561100 0.5 1007284
12:00+25в2256100 0.0 1008625
15:00+26св3463100 0.0 1008757
18:00+24ссв2378100 0.2 1008176
21:00+18ю2389100 0.7 100948